This is the latest recevied weather packets stored in our database for station/object OK2ILA-10. If no packets are shown the sender has not sent any weather packets the latest 10 day(s).
| Time | Temp. | Humidity | Pressure | Rain* | Wind** | Luminosity | Snow |
|---|---|---|---|---|---|---|---|
| 1788427315 | 23.89° C | 49% | 1020.7 hPa | - | - | - | - |
| 1788426719 | 23.33° C | 50% | 1020.7 hPa | - | - | - | - |
| 1788426715 | 23.33° C | 50% | 1020.7 hPa | - | - | - | - |
| 1788426119 | 23.89° C | 50% | 1020.7 hPa | - | - | - | - |
| 1788426115 | 23.89° C | 50% | 1020.7 hPa | - | - | - | - |
| 1788425518 | 23.33° C | 51% | 1020.9 hPa | - | - | - | - |
| 1788425515 | 23.33° C | 51% | 1020.9 hPa | - | - | - | - |
| 1788424918 | 22.78° C | 52% | 1021 hPa | - | - | - | - |
| 1788424914 | 22.78° C | 52% | 1021 hPa | - | - | - | - |
| 1788424318 | 22.78° C | 53% | 1020.9 hPa | - | - | - | - |
| 1788424314 | 22.78° C | 53% | 1020.9 hPa | - | - | - | - |
| 1788423718 | 22.22° C | 54% | 1021 hPa | - | - | - | - |
| 1788423714 | 22.22° C | 54% | 1021 hPa | - | - | - | - |
| 1788423114 | 22.22° C | 53% | 1020.9 hPa | - | - | - | - |
| 1788422518 | 22.22° C | 53% | 1021 hPa | - | - | - | - |
| 1788422514 | 22.22° C | 53% | 1021 hPa | - | - | - | - |
| 1788421917 | 22.22° C | 53% | 1021 hPa | - | - | - | - |
| 1788421913 | 22.22° C | 53% | 1021 hPa | - | - | - | - |
| 1788421313 | 22.22° C | 53% | 1020.8 hPa | - | - | - | - |
| 1788420717 | 22.22° C | 52% | 1020.7 hPa | - | - | - | - |
| 1788420713 | 22.22° C | 52% | 1020.7 hPa | - | - | - | - |
| 1788420117 | 22.78° C | 51% | 1020.8 hPa | - | - | - | - |
| 1788420113 | 22.78° C | 51% | 1020.8 hPa | - | - | - | - |
| 1788419513 | 23.33° C | 49% | 1020.8 hPa | - | - | - | - |
| 1788418912 | 25° C | 47% | 1020.7 hPa | - | - | - | - |
* Rain since midnight (hover to see other rain measurements)
** Current wind speed in m/s (hover to see current wind gust speed)